QPF
0.00 0.00 0.00 0.00 0.00 0.00 0.00 0.00 0.00 0.00 0.00 0.00 0.00 0.00 0.00 0.00 0.00 0.00 0.00 0.00 0.00 0.00 0.00 0.00 0.00 0.00 0.01 0.01 0.02 0.02 0.02 0.01 0.02 0.03 0.04 0.04 0.02 0.01 0.01 0.01 0.00 0.00 0.00
0.00 0.00 0.00 0.00 0.00 0.00 0.00 0.00 0.00 0.00 0.00 0.00 0.00 0.00 0.00 0.00 0.00 0.00 0.00 0.00 0.00 0.00 0.00 0.00 0.00 0.00 0.00 0.00 0.00 0.00 0.00 0.00 0.00 0.01 0.02 0.02 0.01 0.00 0.00 0.00 0.00 0.00 0.00
0.00 0.00 0.00 0.00 0.00 0.00 0.00 0.00 0.00 0.00 0.00 0.00 0.00 0.00 0.00 0.00 0.00 0.00 0.00 0.00 0.00 0.00 0.00 0.00 0.00 0.00 0.00 0.00 0.00 0.00 0.00 0.00 0.00 0.00 0.00 0.00 0.00 0.00 0.00 0.00 0.00 0.00 0.00
0.00 0.00 0.00 0.00 0.00 0.00 0.00 0.00 0.00 0.00 0.00 0.00 0.00 0.00 0.00 0.00 0.00 0.00 0.00 0.00 0.00 0.00 0.00 0.00 0.00 0.00 0.00 0.00 0.00 0.00 0.00 0.00 0.00 0.00 0.00 0.00 0.00 0.00 0.00 0.00 0.00 0.00 0.00
0.00 0.00 0.00 0.00 0.00 0.00 0.00 0.00 0.00 0.00 0.00 0.00 0.00 0.00 0.00 0.00 0.00 0.00 0.00 0.00 0.00 0.00 0.00 0.00 0.00 0.00 0.00 0.00 0.00 0.00 0.00 0.00 0.00 0.00 0.00 0.00 0.00 0.00 0.00 0.00 0.00 0.00 0.00
0.00 0.00 0.00 0.00 0.00 0.00 0.00 0.00 0.00 0.00 0.00 0.00 0.00 0.00 0.00 0.00 0.00 0.00 0.00 0.00 0.00 0.00 0.00 0.00 0.00 0.00 0.00 0.00 0.00 0.00 0.00 0.00 0.00 0.00 0.00 0.00 0.00 0.00 0.00 0.00 0.00 0.00 0.00
0.00 0.00 0.00 0.00 0.00 0.00 0.00 0.00 0.00 0.00 0.00 0.00 0.00 0.00 0.00 0.00 0.00 0.00 0.00 0.00 0.00 0.00 0.00 0.00 0.00 0.00 0.00 0.00 0.00 0.00 0.00 0.00 0.00 0.00 0.00 0.00 0.00 0.00 0.00 0.00 0.00 0.00 0.00
0.00 0.00 0.00 0.00 0.00 0.00 0.00 0.00 0.00 0.00 0.00 0.00 0.00 0.00 0.00 0.00 0.00 0.00 0.00 0.00 0.00 0.00 0.00 0.00 0.00 0.00 0.00 0.00 0.00 0.00 0.00 0.00 0.00 0.00 0.00 0.00 0.00 0.00 0.00 0.00 0.00 0.00 0.00
0.00 0.00 0.00 0.00 0.00 0.00 0.00 0.00 0.00 0.00 0.00 0.00 0.00 0.00 0.00 0.00 0.00 0.00 0.00 0.00 0.00 0.00 0.00 0.00 0.00 0.00 0.00 0.00 0.00 0.00 0.00 0.00 0.00 0.00 0.00 0.00 0.00 0.00 0.00 0.00 0.00 0.00 0.00
0.00 0.00 0.00 0.00 0.00 0.00 0.00 0.00 0.00 0.00 0.00 0.00 0.00 0.00 0.00 0.00 0.00 0.00 0.00 0.00 0.00 0.00 0.00 0.00 0.00 0.00 0.00 0.00 0.00 0.00 0.00 0.00 0.00 0.00 0.00 0.00 0.00 0.00 0.00 0.00 0.00 0.00 0.00
0.00 0.00 0.00 0.00 0.00 0.00 0.00 0.00 0.00 0.00 0.00 0.00 0.01 0.01 0.01 0.00 0.00 0.00 0.00 0.00 0.00 0.00 0.00 0.00 0.00 0.00 0.00 0.00 0.00 0.00 0.00 0.00 0.00 0.00 0.00 0.00 0.00 0.00 0.00 0.00 0.00 0.00 0.00
0.00 0.00 0.00 0.00 0.00 0.00 0.00 0.00 0.00 0.00 0.01 0.01 0.02 0.02 0.02 0.02 0.01 0.01 0.00 0.00 0.00 0.00 0.00 0.00 0.00 0.00 0.00 0.00 0.00 0.00 0.00 0.00 0.00 0.00 0.00 0.00 0.00 0.00 0.00 0.00 0.00 0.00 0.00
0.00 0.00 0.00 0.00 0.00 0.00 0.00 0.00 0.00 0.01 0.01 0.01 0.02 0.04 0.05 0.06 0.05 0.03 0.01 0.01 0.00 0.00 0.00 0.00 0.00 0.00 0.00 0.00 0.00 0.00 0.00 0.00 0.00 0.00 0.00 0.00 0.00 0.00 0.00 0.00 0.00 0.00 0.00
0.00 0.00 0.00 0.00 0.00 0.00 0.00 0.00 0.01 0.01 0.02 0.04 0.07 0.10 0.11 0.11 0.10 0.07 0.04 0.02 0.01 0.00 0.00 0.00 0.00 0.00 0.00 0.00 0.00 0.00 0.00 0.00 0.00 0.00 0.00 0.00 0.00 0.00 0.00 0.00 0.00 0.00 0.00
0.00 0.00 0.00 0.00 0.00 0.00 0.01 0.02 0.03 0.05 0.10 0.15 0.18 0.18 0.15 0.12 0.08 0.05 0.03 0.02 0.01 0.01 0.01 0.00 0.00 0.00 0.00 0.01 0.00 0.00 0.00 0.00 0.00 0.00 0.00 0.00 0.01 0.01 0.01 0.00 0.00 0.00 0.00
0.00 0.00 0.00 0.00 0.01 0.02 0.04 0.07 0.10 0.15 0.20 0.24 0.23 0.20 0.15 0.12 0.09 0.06 0.05 0.03 0.02 0.01 0.00 0.00 0.00 0.00 0.01 0.03 0.01 0.00 0.00 0.00 0.00 0.00 0.00 0.00 0.01 0.01 0.02 0.03 0.02 0.01 0.01
0.00 0.00 0.00 0.01 0.02 0.05 0.08 0.12 0.16 0.19 0.23 0.26 0.26 0.23 0.18 0.14 0.10 0.07 0.04 0.02 0.01 0.00 0.00 0.00 0.00 0.00 0.02 0.05 0.02 0.00 0.00 0.00 0.00 0.00 0.00 0.00 0.00 0.00 0.01 0.01 0.01 0.00 0.00
0.01 0.02 0.01 0.01 0.02 0.04 0.07 0.11 0.16 0.20 0.23 0.23 0.21 0.17 0.12 0.09 0.06 0.04 0.02 0.01 0.00 0.00 0.00 0.00 0.00 0.00 0.01 0.03 0.03 0.01 0.00 0.00 0.00 0.00 0.00 0.00 0.00 0.00 0.00 0.00 0.00 0.00 0.00
0.02 0.03 0.02 0.02 0.02 0.03 0.04 0.07 0.11 0.14 0.15 0.14 0.11 0.08 0.05 0.04 0.03 0.02 0.01 0.00 0.00 0.00 0.00 0.00 0.00 0.00 0.00 0.00 0.01 0.01 0.00 0.00 0.00 0.00 0.00 0.00 0.00 0.00 0.00 0.00 0.00 0.00 0.00
0.02 0.02 0.02 0.02 0.03 0.03 0.03 0.03 0.05 0.06 0.07 0.06 0.04 0.02 0.01 0.02 0.02 0.01 0.00 0.00 0.00 0.00 0.00 0.00 0.00 0.00 0.00 0.00 0.00 0.00 0.00 0.00 0.00 0.00 0.00 0.00 0.00 0.00 0.00 0.00 0.00 0.00 0.00
0.01 0.01 0.02 0.03 0.04 0.03 0.02 0.02 0.02 0.02 0.02 0.01 0.01 0.00 0.00 0.00 0.00 0.00 0.00 0.00 0.00 0.00 0.00 0.00 0.00 0.00 0.00 0.00 0.00 0.00 0.00 0.00 0.00 0.00 0.00 0.00 0.00 0.00 0.00 0.00 0.00 0.00 0.00
0.01 0.02 0.03 0.04 0.04 0.04 0.02 0.02 0.01 0.01 0.00 0.00 0.00 0.00 0.00 0.00 0.00 0.00 0.00 0.00 0.00 0.00 0.00 0.00 0.00 0.00 0.00 0.00 0.00 0.01 0.01 0.00 0.00 0.00 0.00 0.00 0.00 0.00 0.00 0.00 0.00 0.00 0.00
0.02 0.03 0.05 0.05 0.05 0.03 0.01 0.01 0.00 0.00 0.00 0.00 0.00 0.00 0.00 0.00 0.00 0.00 0.00 0.00 0.00 0.00 0.00 0.00 0.00 0.00 0.00 0.00 0.00 0.00 0.00 0.00 0.00 0.00 0.00 0.00 0.00 0.00 0.00 0.00 0.00 0.00 0.00
0.04 0.05 0.05 0.04 0.03 0.02 0.00 0.00 0.00 0.00 0.00 0.00 0.00 0.00 0.00 0.00 0.00 0.00 0.00 0.00 0.00 0.00 0.00 0.00 0.00 0.00 0.00 0.00 0.00 0.01 0.01 0.00 0.00 0.00 0.00 0.00 0.00 0.00 0.00 0.00 0.00 0.00 0.00
0.04 0.04 0.04 0.03 0.02 0.00 0.00 0.00 0.00 0.00 0.00 0.00 0.00 0.00 0.00 0.00 0.00 0.00 0.00 0.00 0.00 0.00 0.00 0.00 0.00 0.00 0.00 0.00 0.02 0.05 0.02 0.01 0.01 0.00 0.00 0.00 0.00 0.00 0.00 0.00 0.00 0.00 0.00
0.03 0.03 0.02 0.01 0.00 0.00 0.00 0.00 0.00 0.00 0.00 0.00 0.00 0.00 0.00 0.00 0.00 0.00 0.00 0.00 0.00 0.00 0.00 0.00 0.00 0.00 0.01 0.01 0.02 0.03 0.02 0.01 0.00 0.00 0.00 0.00 0.00 0.00 0.00 0.00 0.00 0.00 0.00
MSLP
1012.72 1012.40 1012.13 1011.91 1011.73 1011.59 1011.48 1011.38 1011.28 1011.17 1011.05 1010.93 1010.80 1010.69 1010.59 1010.50 1010.42 1010.35 1010.26 1010.17 1010.05 1009.92 1009.78 1009.66 1009.56 1009.51 1009.50 1009.55 1009.64 1009.76 1009.87 1009.98 1010.05 1010.09 1010.10 1010.10 1010.09 1010.10 1010.14 1010.22 1010.33 1010.46 1010.59
1013.58 1013.19 1012.82 1012.49 1012.21 1011.98 1011.78 1011.60 1011.44 1011.29 1011.13 1010.97 1010.82 1010.68 1010.55 1010.44 1010.35 1010.27 1010.19 1010.10 1010.00 1009.90 1009.79 1009.70 1009.63 1009.59 1009.60 1009.65 1009.74 1009.84 1009.95 1010.04 1010.10 1010.13 1010.13 1010.12 1010.10 1010.10 1010.12 1010.18 1010.27 1010.38 1010.50
1014.43 1013.99 1013.55 1013.13 1012.74 1012.40 1012.10 1011.83 1011.59 1011.36 1011.13 1010.91 1010.70 1010.52 1010.36 1010.22 1010.13 1010.05 1010.00 1009.96 1009.91 1009.87 1009.82 1009.78 1009.75 1009.74 1009.76 1009.81 1009.88 1009.96 1010.05 1010.12 1010.17 1010.20 1010.20 1010.18 1010.17 1010.17 1010.19 1010.23 1010.31 1010.40 1010.49
1015.21 1014.75 1014.26 1013.76 1013.28 1012.84 1012.43 1012.06 1011.70 1011.37 1011.06 1010.76 1010.48 1010.24 1010.03 1009.89 1009.79 1009.75 1009.74 1009.76 1009.80 1009.84 1009.87 1009.89 1009.91 1009.93 1009.95 1009.99 1010.03 1010.09 1010.14 1010.20 1010.24 1010.26 1010.27 1010.27 1010.27 1010.27 1010.29 1010.33 1010.38 1010.45 1010.52
1015.88 1015.42 1014.90 1014.35 1013.80 1013.26 1012.75 1012.26 1011.80 1011.36 1010.94 1010.55 1010.20 1009.90 1009.66 1009.50 1009.42 1009.41 1009.47 1009.58 1009.70 1009.83 1009.95 1010.03 1010.09 1010.13 1010.15 1010.16 1010.17 1010.19 1010.21 1010.24 1010.27 1010.29 1010.31 1010.33 1010.34 1010.35 1010.37 1010.40 1010.43 1010.47 1010.51
1016.40 1015.97 1015.44 1014.86 1014.25 1013.64 1013.03 1012.45 1011.89 1011.35 1010.84 1010.37 1009.95 1009.60 1009.33 1009.17 1009.11 1009.14 1009.26 1009.44 1009.65 1009.86 1010.05 1010.19 1010.28 1010.32 1010.32 1010.30 1010.26 1010.23 1010.22 1010.22 1010.23 1010.26 1010.29 1010.32 1010.34 1010.36 1010.38 1010.39 1010.40 1010.41 1010.42
1016.75 1016.35 1015.84 1015.25 1014.60 1013.94 1013.27 1012.61 1011.98 1011.37 1010.80 1010.27 1009.80 1009.42 1009.13 1008.97 1008.93 1009.00 1009.17 1009.41 1009.68 1009.95 1010.18 1010.35 1010.45 1010.48 1010.45 1010.38 1010.30 1010.22 1010.16 1010.13 1010.13 1010.15 1010.18 1010.22 1010.25 1010.27 1010.28 1010.27 1010.25 1010.23 1010.21
1016.93 1016.56 1016.07 1015.48 1014.82 1014.14 1013.44 1012.76 1012.09 1011.45 1010.85 1010.30 1009.82 1009.42 1009.14 1008.98 1008.95 1009.04 1009.24 1009.50 1009.80 1010.09 1010.33 1010.50 1010.58 1010.58 1010.51 1010.40 1010.27 1010.14 1010.04 1009.99 1009.97 1009.98 1010.01 1010.05 1010.07 1010.08 1010.06 1010.02 1009.98 1009.93 1009.88
1016.95 1016.60 1016.11 1015.54 1014.90 1014.23 1013.55 1012.87 1012.22 1011.60 1011.02 1010.49 1010.02 1009.64 1009.36 1009.21 1009.18 1009.27 1009.46 1009.71 1010.00 1010.27 1010.49 1010.63 1010.67 1010.64 1010.53 1010.37 1010.20 1010.04 1009.92 1009.84 1009.80 1009.80 1009.82 1009.84 1009.85 1009.83 1009.78 1009.71 1009.63 1009.55 1009.48
1016.83 1016.46 1015.98 1015.43 1014.82 1014.19 1013.57 1012.96 1012.38 1011.82 1011.31 1010.83 1010.41 1010.06 1009.80 1009.65 1009.60 1009.66 1009.81 1010.02 1010.25 1010.47 1010.64 1010.73 1010.74 1010.67 1010.52 1010.34 1010.15 1009.97 1009.83 1009.74 1009.69 1009.67 1009.67 1009.67 1009.64 1009.59 1009.50 1009.39 1009.28 1009.17 1009.09
1016.59 1016.19 1015.71 1015.17 1014.62 1014.06 1013.53 1013.03 1012.55 1012.11 1011.69 1011.31 1010.96 1010.65 1010.41 1010.25 1010.17 1010.18 1010.26 1010.40 1010.55 1010.70 1010.80 1010.85 1010.81 1010.71 1010.55 1010.36 1010.17 1009.99 1009.85 1009.76 1009.70 1009.67 1009.65 1009.61 1009.55 1009.45 1009.33 1009.18 1009.03 1008.90 1008.81
1016.29 1015.83 1015.34 1014.83 1014.34 1013.88 1013.46 1013.09 1012.76 1012.45 1012.16 1011.87 1011.60 1011.34 1011.12 1010.94 1010.82 1010.76 1010.76 1010.81 1010.88 1010.95 1010.99 1010.99 1010.93 1010.82 1010.67 1010.49 1010.32 1010.16 1010.04 1009.95 1009.89 1009.84 1009.79 1009.72 1009.62 1009.49 1009.32 1009.14 1008.96 1008.82 1008.72
1015.97 1015.46 1014.96 1014.48 1014.06 1013.70 1013.42 1013.19 1013.00 1012.84 1012.67 1012.49 1012.30 1012.09 1011.87 1011.67 1011.50 1011.37 1011.29 1011.25 1011.24 1011.24 1011.24 1011.20 1011.14 1011.04 1010.91 1010.77 1010.63 1010.51 1010.41 1010.33 1010.27 1010.21 1010.13 1010.03 1009.90 1009.72 1009.52 1009.31 1009.12 1008.97 1008.87
1015.71 1015.15 1014.64 1014.20 1013.86 1013.61 1013.45 1013.36 1013.31 1013.28 1013.23 1013.14 1013.01 1012.83 1012.62 1012.39 1012.17 1011.98 1011.82 1011.71 1011.64 1011.59 1011.55 1011.51 1011.46 1011.38 1011.29 1011.20 1011.10 1011.01 1010.94 1010.87 1010.81 1010.74 1010.65 1010.52 1010.35 1010.15 1009.93 1009.70 1009.50 1009.34 1009.25
1015.56 1014.97 1014.47 1014.08 1013.81 1013.66 1013.62 1013.64 1013.71 1013.78 1013.82 1013.80 1013.71 1013.54 1013.32 1013.07 1012.81 1012.57 1012.36 1012.20 1012.08 1012.00 1011.95 1011.91 1011.88 1011.84 1011.79 1011.74 1011.68 1011.63 1011.58 1011.52 1011.46 1011.38 1011.27 1011.12 1010.93 1010.72 1010.48 1010.25 1010.05 1009.90 1009.80
1015.59 1015.00 1014.53 1014.19 1013.99 1013.92 1013.96 1014.08 1014.22 1014.35 1014.44 1014.45 1014.37 1014.21 1013.98 1013.70 1013.41 1013.13 1012.89 1012.70 1012.56 1012.47 1012.42 1012.39 1012.38 1012.37 1012.36 1012.34 1012.31 1012.27 1012.24 1012.19 1012.12 1012.04 1011.92 1011.76 1011.57 1011.36 1011.12 1010.90 1010.70 1010.55 1010.45
1015.84 1015.28 1014.85 1014.57 1014.43 1014.41 1014.51 1014.66 1014.84 1014.99 1015.08 1015.09 1015.00 1014.83 1014.57 1014.28 1013.96 1013.67 1013.41 1013.20 1013.06 1012.97 1012.93 1012.91 1012.92 1012.92 1012.92 1012.91 1012.90 1012.87 1012.83 1012.78 1012.72 1012.63 1012.51 1012.37 1012.19 1011.98 1011.77 1011.55 1011.36 1011.21 1011.10
1016.37 1015.85 1015.47 1015.23 1015.12 1015.14 1015.24 1015.39 1015.55 1015.68 1015.74 1015.71 1015.59 1015.38 1015.10 1014.79 1014.47 1014.16 1013.90 1013.70 1013.56 1013.48 1013.43 1013.42 1013.42 1013.42 1013.42 1013.40 1013.38 1013.34 1013.30 1013.25 1013.18 1013.10 1013.00 1012.87 1012.71 1012.53 1012.34 1012.14 1011.95 1011.79 1011.67
1017.16 1016.70 1016.36 1016.15 1016.05 1016.05 1016.12 1016.23 1016.33 1016.39 1016.38 1016.29 1016.12 1015.87 1015.57 1015.24 1014.92 1014.62 1014.37 1014.18 1014.04 1013.95 1013.90 1013.88 1013.86 1013.84 1013.80 1013.76 1013.71 1013.66 1013.60 1013.55 1013.49 1013.43 1013.35 1013.25 1013.13 1012.98 1012.81 1012.63 1012.44 1012.27 1012.12
1018.19 1017.78 1017.47 1017.26 1017.14 1017.09 1017.10 1017.12 1017.13 1017.09 1017.00 1016.83 1016.60 1016.31 1015.98 1015.65 1015.32 1015.04 1014.80 1014.61 1014.47 1014.38 1014.31 1014.26 1014.21 1014.14 1014.07 1014.00 1013.92 1013.84 1013.77 1013.72 1013.67 1013.63 1013.59 1013.52 1013.44 1013.32 1013.18 1013.01 1012.82 1012.62 1012.44
1019.41 1019.03 1018.72 1018.48 1018.32 1018.20 1018.11 1018.02 1017.92 1017.77 1017.58 1017.33 1017.03 1016.70 1016.35 1016.01 1015.69 1015.42 1015.19 1015.01 1014.87 1014.76 1014.66 1014.57 1014.48 1014.37 1014.25 1014.14 1014.02 1013.93 1013.85 1013.80 1013.77 1013.76 1013.74 1013.72 1013.67 1013.59 1013.46 1013.30 1013.10 1012.89 1012.66
1020.72 1020.35 1020.03 1019.75 1019.51 1019.30 1019.10 1018.90 1018.67 1018.42 1018.12 1017.79 1017.43 1017.06 1016.70 1016.35 1016.04 1015.77 1015.55 1015.37 1015.22 1015.09 1014.97 1014.84 1014.70 1014.55 1014.39 1014.23 1014.09 1013.98 1013.90 1013.86 1013.84 1013.85 1013.87 1013.88 1013.86 1013.80 1013.69 1013.53 1013.33 1013.09 1012.83
1022.04 1021.66 1021.30 1020.97 1020.65 1020.34 1020.04 1019.72 1019.38 1019.02 1018.64 1018.23 1017.83 1017.42 1017.04 1016.69 1016.39 1016.13 1015.91 1015.73 1015.56 1015.41 1015.25 1015.09 1014.91 1014.72 1014.52 1014.34 1014.18 1014.05 1013.97 1013.93 1013.93 1013.95 1013.99 1014.02 1014.02 1013.98 1013.89 1013.73 1013.53 1013.28 1012.99
1023.27 1022.87 1022.47 1022.08 1021.68 1021.29 1020.89 1020.47 1020.04 1019.59 1019.14 1018.68 1018.23 1017.80 1017.41 1017.06 1016.76 1016.50 1016.27 1016.08 1015.90 1015.72 1015.54 1015.34 1015.12 1014.90 1014.68 1014.48 1014.30 1014.16 1014.08 1014.04 1014.04 1014.07 1014.12 1014.16 1014.17 1014.14 1014.05 1013.91 1013.71 1013.46 1013.17
1024.33 1023.91 1023.48 1023.04 1022.58 1022.12 1021.64 1021.15 1020.65 1020.14 1019.63 1019.13 1018.66 1018.21 1017.81 1017.46 1017.15 1016.88 1016.65 1016.44 1016.23 1016.03 1015.82 1015.59 1015.35 1015.10 1014.86 1014.64 1014.46 1014.31 1014.21 1014.17 1014.16 1014.19 1014.23 1014.26 1014.28 1014.26 1014.18 1014.05 1013.87 1013.63 1013.36
1025.18 1024.75 1024.29 1023.82 1023.33 1022.83 1022.30 1021.77 1021.22 1020.67 1020.13 1019.60 1019.11 1018.65 1018.24 1017.87 1017.55 1017.27 1017.01 1016.78 1016.55 1016.32 1016.07 1015.82 1015.55 1015.29 1015.03 1014.80 1014.60 1014.44 1014.33 1014.27 1014.25 1014.26 1014.28 1014.31 1014.32 1014.30 1014.24 1014.13 1013.98 1013.77 1013.53
Thickness
5658 5657 5656 5654 5649 5644 5640 5637 5634 5631 5628 5627 5625 5623 5623 5621 5620 5619 5618 5617 5617 5616 5615 5615 5616 5615 5616 5616 5616 5615 5614 5613 5614 5614 5616 5616 5616 5616 5616 5616 5618 5621 5621
5642 5640 5637 5634 5630 5627 5624 5621 5619 5617 5614 5612 5610 5608 5607 5605 5604 5601 5600 5599 5599 5598 5597 5598 5598 5598 5598 5598 5598 5598 5597 5597 5597 5600 5602 5602 5602 5603 5603 5604 5604 5607 5609
5620 5618 5616 5612 5610 5607 5605 5602 5602 5601 5599 5596 5593 5590 5589 5587 5585 5585 5584 5582 5581 5581 5580 5581 5581 5581 5581 5581 5581 5581 5581 5582 5583 5586 5588 5590 5593 5593 5592 5592 5594 5594 5596
5596 5593 5590 5588 5587 5585 5584 5582 5581 5582 5581 5579 5577 5576 5574 5573 5573 5571 5568 5567 5565 5565 5564 5564 5564 5564 5564 5564 5565 5565 5565 5566 5567 5569 5572 5577 5580 5579 5580 5581 5583 5583 5584
5573 5570 5566 5563 5562 5562 5562 5562 5561 5561 5561 5560 5560 5558 5558 5558 5556 5553 5551 5551 5550 5549 5548 5548 5548 5548 5548 5549 5548 5548 5549 5550 5552 5554 5556 5559 5563 5566 5567 5568 5569 5570 5572
5554 5550 5546 5543 5541 5540 5539 5540 5541 5541 5540 5540 5540 5539 5540 5539 5537 5536 5536 5536 5536 5534 5533 5532 5532 5532 5533 5533 5533 5533 5534 5535 5537 5539 5542 5546 5550 5551 5553 5555 5557 5558 5559
5534 5529 5525 5521 5519 5516 5515 5516 5518 5520 5519 5519 5519 5520 5520 5520 5520 5522 5522 5522 5522 5520 5518 5517 5517 5518 5517 5517 5517 5518 5519 5520 5522 5525 5529 5534 5539 5542 5544 5545 5546 5546 5548
5513 5508 5502 5497 5493 5491 5489 5489 5491 5496 5498 5499 5500 5501 5501 5502 5505 5507 5508 5508 5508 5506 5503 5501 5502 5502 5502 5501 5502 5503 5505 5506 5509 5513 5517 5521 5527 5529 5531 5532 5533 5534 5536
5494 5486 5479 5474 5470 5467 5465 5463 5466 5472 5479 5482 5484 5485 5486 5487 5488 5489 5489 5490 5490 5488 5486 5485 5486 5486 5486 5487 5487 5489 5491 5494 5498 5502 5506 5511 5516 5518 5519 5520 5521 5521 5523
5469 5461 5456 5453 5449 5445 5443 5442 5442 5449 5459 5467 5471 5472 5472 5472 5471 5471 5471 5471 5472 5470 5469 5469 5470 5470 5472 5473 5474 5475 5477 5481 5486 5490 5496 5501 5505 5508 5508 5508 5510 5511 5512
5448 5442 5439 5437 5433 5428 5424 5423 5424 5428 5438 5448 5453 5455 5454 5454 5455 5456 5456 5455 5456 5454 5454 5453 5454 5455 5457 5459 5461 5463 5465 5469 5475 5480 5485 5491 5495 5497 5498 5499 5500 5501 5503
5436 5431 5428 5426 5422 5416 5410 5407 5406 5408 5412 5419 5425 5429 5431 5435 5438 5440 5440 5440 5440 5439 5438 5437 5438 5441 5443 5445 5448 5450 5453 5458 5463 5469 5474 5478 5482 5485 5487 5489 5491 5493 5495
5428 5423 5418 5414 5410 5403 5396 5393 5391 5389 5390 5393 5398 5403 5407 5414 5419 5421 5422 5424 5424 5423 5423 5423 5425 5428 5431 5433 5435 5438 5441 5444 5449 5454 5459 5464 5468 5473 5477 5479 5481 5484 5485
5415 5408 5402 5398 5394 5388 5382 5378 5376 5373 5371 5372 5374 5379 5384 5391 5398 5403 5406 5407 5407 5408 5409 5410 5412 5415 5417 5419 5420 5423 5425 5428 5431 5436 5440 5443 5448 5454 5460 5463 5466 5468 5470
5400 5391 5382 5377 5374 5373 5371 5366 5362 5358 5356 5356 5356 5359 5365 5373 5380 5386 5389 5391 5393 5394 5396 5398 5398 5400 5403 5404 5405 5407 5408 5411 5414 5418 5421 5423 5427 5432 5437 5441 5443 5447 5450
5381 5370 5361 5355 5354 5356 5360 5356 5350 5347 5345 5344 5343 5345 5351 5357 5364 5370 5374 5377 5380 5383 5384 5383 5384 5385 5388 5390 5391 5393 5394 5396 5398 5401 5405 5408 5411 5414 5418 5421 5423 5425 5428
5360 5351 5343 5340 5341 5345 5349 5345 5338 5336 5336 5335 5335 5336 5339 5345 5351 5357 5362 5365 5368 5369 5369 5369 5369 5370 5372 5376 5377 5378 5382 5384 5386 5389 5392 5396 5398 5401 5404 5406 5407 5409 5409
5351 5344 5338 5336 5336 5338 5337 5332 5328 5327 5327 5327 5327 5328 5331 5336 5342 5346 5349 5352 5354 5355 5355 5355 5356 5358 5358 5361 5363 5364 5368 5370 5372 5374 5377 5380 5384 5387 5389 5392 5394 5396 5397
5347 5343 5338 5334 5332 5329 5326 5322 5320 5319 5318 5318 5318 5320 5323 5327 5332 5335 5337 5339 5341 5342 5343 5343 5344 5346 5347 5348 5351 5353 5356 5357 5358 5359 5360 5363 5368 5370 5372 5375 5377 5379 5382
5346 5340 5333 5327 5321 5316 5314 5312 5310 5309 5308 5308 5310 5311 5314 5317 5321 5323 5325 5327 5329 5330 5331 5332 5332 5333 5335 5335 5339 5340 5342 5344 5345 5346 5346 5346 5349 5352 5354 5357 5360 5362 5365
5334 5327 5319 5313 5307 5304 5302 5301 5300 5299 5298 5300 5302 5303 5305 5308 5309 5311 5313 5315 5317 5319 5320 5321 5321 5322 5321 5323 5325 5326 5328 5327 5329 5330 5332 5332 5331 5333 5335 5337 5341 5342 5344
5319 5313 5307 5300 5295 5293 5293 5292 5290 5289 5291 5292 5293 5293 5294 5295 5297 5300 5302 5303 5305 5307 5309 5310 5312 5311 5310 5309 5311 5312 5312 5311 5312 5313 5314 5314 5313 5314 5316 5318 5321 5322 5324
5305 5299 5295 5289 5285 5283 5283 5281 5280 5280 5281 5283 5283 5283 5283 5283 5285 5287 5290 5291 5293 5295 5298 5299 5300 5300 5300 5299 5297 5298 5297 5295 5295 5296 5294 5293 5294 5296 5300 5301 5302 5305 5310
5289 5285 5281 5278 5275 5273 5272 5270 5269 5269 5271 5271 5271 5271 5270 5271 5272 5275 5277 5278 5279 5280 5283 5284 5285 5285 5286 5286 5286 5285 5285 5282 5281 5280 5278 5276 5277 5279 5280 5284 5287 5289 5292
5276 5272 5268 5266 5264 5262 5260 5258 5258 5258 5259 5260 5259 5259 5258 5259 5260 5261 5262 5262 5264 5263 5264 5265 5265 5266 5267 5268 5267 5268 5270 5268 5266 5263 5263 5264 5265 5266 5268 5269 5270 5271 5274
5264 5261 5258 5256 5253 5250 5248 5246 5245 5245 5245 5246 5247 5246 5246 5246 5247 5248 5249 5248 5246 5246 5247 5246 5246 5248 5247 5248 5249 5250 5250 5249 5246 5245 5247 5247 5247 5248 5249 5250 5252 5253 5256